Tracking 19817 objects as of 18-Aug-2019
HD Live streaming from Space Station
objects crossing your sky now

SL-8 R/B

Track SL-8 R/B now!
10-day predictions


NORAD ID: 13649
Int'l Code: 1982-109B
Perigee: 761.3 km
Apogee: 788.8 km
Inclination: 74.0 °
Period: 100.2 minutes
Semi major axis: 7146 km
RCS: 4.6386 m2 (large)
Launch date: November 11, 1982
Source: Commonwealth of Independent States (former USSR) (CIS)
Launch site: PLESETSK MISSILE AND SPACE COMPLEX (PKMTR)

Note: This is a ROCKET BODY
aabbcc
Your satellite tracking list
Your tracking list is empty




NASA's NSSDC Master Catalog

Two Line Element Set (TLE):
1 13649U 82109B   19229.19229937  .00000035  00000-0  20714-4 0  9994
2 13649  74.0018 354.1779 0019218 322.9678 105.2805 14.37151626925259
Source of the keplerian elements: AFSPC